DateTimeUTC,F1_A11,F1_S11,BsB_S11,BsG_S11,BsR_S11,BbsB_S11,BbsG_S11,BbsR_S11,BaB_A11,BaG_A11,BaR_A11,Tu_S11,T_S11,Uu_S11,U_S11,P_S11,T1_A11
2021-05-30T22:00:00Z,00000200,20000000,,,,,,,0000.01,-000.48,-000.55,18.6,25.5,03.7,02.4,0658.4,31.1
2021-05-30T22:01:00Z,00000200,20000000,,,,,,,-000.03,0000.44,0000.41,18.6,25.5,03.7,02.4,0658.4,31.1
2021-05-30T22:02:00Z,00000200,20000000,,,,,,,0000.00,0000.07,0000.07,18.6,25.5,03.7,02.4,0658.4,31.1
2021-05-30T22:03:00Z,00000200,60000000,,,,,,,0000.37,0000.15,-000.15,18.6,25.5,03.7,02.4,0658.4,31.1
2021-05-30T22:04:00Z,00000200,40000000,0000.60,0001.07,0000.41,0001.03,0000.11,0000.03,0000.31,0000.67,0000.84,18.7,25.3,04.0,02.6,0659.3,31.1
2021-05-30T22:05:00Z,00000200,00000000,0001.68,0001.25,0000.28,0000.14,0000.23,0000.07,0000.30,0000.02,-000.01,18.8,25.3,03.9,02.6,0659.4,31.1
2021-05-30T22:06:00Z,00000200,00000000,0002.63,0000.97,0000.76,0000.24,0000.34,0000.10,0000.81,0000.58,0000.31,18.8,25.3,04.0,02.7,0659.3,31.1
2021-05-30T22:07:00Z,00000200,00000000,0001.85,0001.31,0000.64,0000.13,0000.14,-000.10,-000.15,-000.04,-000.17,18.8,25.2,04.2,02.8,0659.3,31.1
2021-05-30T22:08:00Z,00000200,00000000,0001.65,0001.36,0000.57,0000.47,0000.04,0000.07,0000.62,0000.44,0000.61,18.8,25.2,04.2,02.8,0659.3,31.1
2021-05-30T22:09:00Z,00000200,00000000,0001.74,0000.96,0000.38,0000.52,0000.07,-000.08,-000.02,0000.38,0000.20,18.8,25.2,04.2,02.8,0659.3,31.1
2021-05-30T22:10:00Z,00000200,00000000,0001.85,0001.10,0000.37,0000.65,-000.12,0000.21,0000.97,0000.51,0000.67,18.8,25.2,04.2,02.8,0659.3,31.1
2021-05-30T22:11:00Z,00000200,00000000,0001.52,0001.01,0000.47,0000.57,0000.34,0000.28,0000.11,0000.43,0000.07,18.8,25.2,04.2,02.9,0659.3,31.1
2021-05-30T22:12:00Z,00000200,00000000,0001.08,0001.28,0000.68,0000.18,-000.02,-000.01,0000.63,0000.54,0000.28,18.8,25.2,04.3,02.9,0659.3,31.1
2021-05-30T22:13:00Z,00000200,00000000,0002.32,0001.18,0000.36,0000.75,0000.25,0000.25,0000.26,0000.04,0000.16,18.8,25.2,04.3,02.9,0659.3,31.1
2021-05-30T22:14:00Z,00000200,00000000,0001.54,0001.10,0000.71,0001.00,0000.20,0000.12,0000.08,0000.02,-000.07,18.8,25.2,04.3,02.9,0659.3,31.1
2021-05-30T22:15:00Z,00000200,00000000,0001.58,0001.23,0000.52,0000.51,0000.15,0000.19,0000.65,0000.76,0000.57,18.8,25.2,04.3,02.9,0659.3,31.1
2021-05-30T22:16:00Z,00000200,00000000,0001.41,0001.06,0000.26,0000.19,-000.08,0000.15,0000.43,0000.43,0000.12,18.8,25.2,04.3,02.9,0659.3,31.1
2021-05-30T22:17:00Z,00000200,00000000,0001.68,0001.19,0000.41,0001.19,-000.18,-000.14,0000.43,0000.13,0000.71,18.8,25.2,04.3,02.9,0659.3,31.1
2021-05-30T22:18:00Z,00000200,00000000,0002.23,0001.27,0000.78,0000.64,-000.17,0000.12,0000.30,0000.32,-000.45,18.7,25.2,04.3,02.9,0659.3,31.1
2021-05-30T22:19:00Z,00000200,00000000,0001.55,0001.13,0000.53,0000.32,-000.15,0000.02,0000.46,0000.51,0000.73,18.7,25.2,04.4,03.0,0659.3,31.1
2021-05-30T22:20:00Z,00000200,00000000,0001.37,0000.89,0000.65,0000.82,0000.17,0000.14,0000.43,0000.51,0000.46,18.7,25.2,04.4,03.0,0659.3,31.1
2021-05-30T22:21:00Z,00000200,00000000,0001.49,0001.08,0000.69,0000.11,0000.14,0000.65,0000.44,0000.13,0000.21,18.7,25.2,04.5,03.0,0659.3,31.1
2021-05-30T22:22:00Z,00000200,00000000,0001.20,0001.25,0000.57,0000.59,-000.07,0000.14,0000.02,0000.21,0000.28,18.7,25.2,04.4,03.0,0659.3,31.1
2021-05-30T22:23:00Z,00000200,00000000,0001.34,0001.24,0000.78,0000.54,-000.21,-000.17,0000.19,-000.12,-000.11,18.7,25.2,04.4,03.0,0659.3,31.1
2021-05-30T22:24:00Z,00000200,00000000,0001.41,0001.05,0000.61,0000.42,0000.21,0000.01,-000.02,0000.56,0000.27,18.7,25.1,04.3,02.9,0659.3,31.1
2021-05-30T22:25:00Z,00000200,00000000,0001.65,0001.05,0000.63,0000.46,-000.14,0000.03,0000.68,0000.18,-000.00,18.7,25.1,04.1,02.8,0659.3,31.1
2021-05-30T22:26:00Z,00000200,00000000,0001.30,0001.06,0000.26,0000.41,-000.01,-000.03,-000.02,0000.21,0000.23,18.7,25.1,04.2,02.9,0659.3,31.1
2021-05-30T22:27:00Z,00000200,00000000,0000.90,0001.09,0000.51,0000.73,-000.15,0000.30,0000.27,0000.00,-000.03,18.7,25.1,04.1,02.7,0659.3,31.1
2021-05-30T22:28:00Z,00000200,00000000,0001.97,0001.14,0000.58,0000.64,0000.17,0000.50,0000.46,0000.24,0000.47,18.7,25.1,04.1,02.7,0659.3,31.1
2021-05-30T22:29:00Z,00000200,00000000,0001.37,0001.02,0000.67,0000.53,-000.06,0000.10,0000.66,0000.66,0000.48,18.7,25.1,04.0,02.7,0659.2,31.1
2021-05-30T22:30:00Z,00000200,00000000,0002.01,0001.58,0000.86,0000.23,0000.12,0000.07,0000.31,0000.38,0000.24,18.7,25.1,04.2,02.9,0659.2,31.1
2021-05-30T22:31:00Z,00000200,00000000,0002.05,0001.10,0000.56,0000.51,0000.05,0000.03,0000.22,0000.02,-000.18,18.7,25.1,04.2,02.8,0659.2,31.1
2021-05-30T22:32:00Z,00000200,00000000,0001.65,0000.82,0000.74,0000.17,0000.15,0000.23,0000.18,0000.37,0000.42,18.7,25.1,04.1,02.8,0659.2,31.1
2021-05-30T22:33:00Z,00000200,00000000,0001.05,0001.08,0000.47,0000.75,0000.20,0000.03,0000.36,0000.25,0000.37,18.7,25.1,04.1,02.8,0659.2,31.1
2021-05-30T22:34:00Z,00000200,00000000,0001.89,0000.87,0000.63,0000.11,0000.18,0000.11,0000.08,0000.24,0000.00,18.7,25.1,04.0,02.7,0659.2,31.1
2021-05-30T22:35:00Z,00000200,00000000,0001.69,0000.97,0000.66,0000.52,-000.05,0000.29,0000.70,0000.37,0000.40,18.7,25.1,04.0,02.7,0659.2,31.1
2021-05-30T22:36:00Z,00000200,00000000,0001.70,0000.71,0000.43,0001.01,0000.17,0000.15,0000.36,0000.60,0000.24,18.7,25.1,04.1,02.8,0659.2,31.1
2021-05-30T22:37:00Z,00000200,00000000,0001.50,0000.92,0000.46,0000.55,0000.20,-000.08,0000.67,0000.51,0000.52,18.6,25.1,04.4,03.0,0659.2,31.1
2021-05-30T22:38:00Z,00000200,00000000,0001.65,0001.08,0000.43,0000.13,-000.01,-000.16,0000.26,0000.43,0000.21,18.6,25.1,04.5,03.0,0659.2,31.1
2021-05-30T22:39:00Z,00000200,00000000,0001.58,0001.26,0000.50,0000.59,0000.21,0000.03,0000.67,0000.56,0000.75,18.6,25.1,04.5,03.1,0659.2,31.1
2021-05-30T22:40:00Z,00000200,00000000,0001.51,0000.75,0000.46,0000.26,-000.19,-000.22,0000.49,0000.58,0000.20,18.6,25.1,04.8,03.2,0659.2,31.1
2021-05-30T22:41:00Z,00000200,00000000,0001.80,0000.68,0000.59,0000.86,0000.00,0000.19,0000.54,0000.14,0000.31,18.6,25.0,04.6,03.1,0659.2,31.1
2021-05-30T22:42:00Z,00000200,00000000,0001.59,0000.99,0000.64,-000.29,-000.20,0000.13,0000.23,0000.45,0000.29,18.6,25.0,04.8,03.2,0659.2,31.1
2021-05-30T22:43:00Z,00000200,00000000,0001.38,0001.06,0000.73,0000.23,0000.24,0000.10,0000.18,0000.33,0000.19,18.6,25.0,04.7,03.2,0659.2,31.1
2021-05-30T22:44:00Z,00000200,00000000,0001.11,0000.96,0000.46,0000.41,0000.29,0000.02,0000.43,0000.45,0000.34,18.6,25.0,04.7,03.1,0659.2,31.1
2021-05-30T22:45:00Z,00000200,00000000,0001.70,0000.97,0000.53,0000.43,0000.17,-000.04,0000.68,0000.26,0000.22,18.6,25.0,04.7,03.2,0659.2,31.1
2021-05-30T22:46:00Z,00000200,00000000,0001.24,0001.04,0000.48,0000.24,0000.15,0000.03,-000.07,0000.02,-000.18,18.6,25.0,04.7,03.2,0659.2,31.1
2021-05-30T22:47:00Z,00000200,00000000,0001.62,0001.17,0000.41,0000.89,0000.38,-000.24,0000.78,0000.32,0000.58,18.6,25.0,04.7,03.2,0659.1,31.1
2021-05-30T22:48:00Z,00000200,00000000,0001.83,0001.42,0000.56,0000.03,-000.04,0000.07,-000.19,0000.23,0000.15,18.6,25.0,04.7,03.2,0659.2,31.1
2021-05-30T22:49:00Z,00000200,00000000,0001.38,0001.19,0000.50,0000.98,0000.03,-000.07,0000.59,0000.69,0000.41,18.6,25.0,04.7,03.2,0659.1,31.1
2021-05-30T22:50:00Z,00000200,00000000,0001.66,0001.08,0000.58,0000.35,0000.02,0000.04,0000.53,0000.13,-000.04,18.6,25.0,04.8,03.2,0659.1,31.1
2021-05-30T22:51:00Z,00000200,00000000,0001.74,0001.16,0000.51,0000.74,0000.15,0000.10,0000.14,0000.20,0000.13,18.6,25.0,04.8,03.2,0659.2,31.1
2021-05-30T22:52:00Z,00000200,00000000,0001.02,0001.18,0000.57,0000.81,-000.19,0000.17,0000.19,0000.56,0000.07,18.5,25.0,04.7,03.2,0659.2,31.1
2021-05-30T22:53:00Z,00000200,00000000,0001.24,0001.21,0000.41,0000.87,0000.02,0000.06,0000.48,0000.01,0000.45,18.5,25.0,04.6,03.1,0659.1,31.1
2021-05-30T22:54:00Z,00000200,00000000,0001.71,0001.00,0000.65,0000.66,-000.16,0000.06,0000.21,0000.43,0000.48,18.6,25.0,04.6,03.1,0659.1,31.1
2021-05-30T22:55:00Z,00000200,00000000,0001.89,0001.26,0000.71,0000.24,0000.14,0000.01,0000.41,0000.57,0000.10,18.5,25.0,04.7,03.2,0659.2,31.1
2021-05-30T22:56:00Z,00000200,00000000,0001.53,0001.03,0000.48,0000.37,0000.08,0000.07,0000.46,-000.08,0000.30,18.6,25.0,04.7,03.2,0659.2,31.1
2021-05-30T22:57:00Z,00000200,40000000,,,,,,,0000.15,0000.32,0000.29,18.6,25.0,05.2,03.5,0659.2,31.0
2021-05-30T22:58:00Z,00000200,60000000,,,,,,,-000.25,-000.61,-000.28,18.3,25.1,04.7,03.1,0658.2,31.1
2021-05-30T22:59:00Z,00000200,20000000,,,,,,,-000.07,0000.21,0000.23,18.3,25.2,04.6,03.0,0658.2,31.0
